Burlington, WA
on Tuesday, January 15, 2013

Tuesday
Previous Day Next Day
Daily Summary
 ActualAverage (KBLI)Record (KBLI)
Temperature
Mean Temperature °F 39°F  
Max Temperature 42°F 46°F 58°F (1974)
Min Temperature 32°F 33°F 9°F (1950)
Degree Days
Heating Degree Days 28 26  
Month to date heating degree days 396  
Cooling Degree Days 0 0  
Month to date cooling degree days 0  
Year to date cooling degree days 0  
Moisture
Dew Point 34°F   
Average Humidity 96    
Maximum Humidity 100    
Minimum Humidity 76    
Precipitation
Precipitation 0.00 in 0.16 in 1.16 in (1976)
Month to date precipitation 2.30  
Year to date precipitation 2.30  
Wind
Wind Speed 1 mph   
Max Wind Speed 7 mph   
Max Gust Speed mph   
Visibility 8 miles   
Events     

Key: T is trace of precipitation, MM is missing value
Source: NWS Daily Summary
Time(PST)TemperatureDew PointHumidity Pressure Visibility Wind DirectionWind SpeedGust SpeedPrecipitationEvents Conditions
12:15 AM 33.8°F 33.8°F 100% 30.59 in 9.0 miles Calm Calm - 0.00 in   Overcast
12:35 AM 33.8°F 33.8°F 100% 30.60 in 10.0 miles Calm Calm - 0.00 in   Overcast
12:55 AM 33.8°F 33.8°F 100% 30.60 in 9.0 miles NE 3.5 mph - 0.00 in   Overcast
1:15 AM 33.8°F 33.8°F 100% 30.61 in 8.0 miles Calm Calm - 0.00 in   Overcast
1:35 AM 33.8°F 33.8°F 100% 30.62 in 8.0 miles Calm Calm - 0.00 in   Overcast
1:55 AM 33.8°F 33.8°F 100% 30.62 in 8.0 miles Calm Calm - 0.00 in   Overcast
2:15 AM 33.8°F 33.8°F 100% 30.62 in 8.0 miles Calm Calm - 0.00 in   Overcast
2:55 AM 33.8°F 33.8°F 100% 30.64 in 8.0 miles Calm Calm - 0.00 in   Overcast
3:15 AM 33.8°F 33.8°F 100% 30.64 in 8.0 miles Calm Calm - 0.00 in   Overcast
3:35 AM 33.8°F 33.8°F 100% 30.64 in 8.0 miles Calm Calm - 0.00 in   Overcast
3:55 AM 33.8°F 33.8°F 100% 30.64 in 8.0 miles Calm Calm - 0.00 in   Overcast
4:15 AM 33.8°F 33.8°F 100% 30.64 in 8.0 miles NNE 3.5 mph - 0.00 in   Overcast
4:35 AM 33.8°F 33.8°F 100% 30.64 in 8.0 miles NNE 3.5 mph - 0.00 in   Overcast
4:55 AM 33.8°F 33.8°F 100% 30.64 in 8.0 miles Calm Calm - 0.00 in   Overcast
5:15 AM 33.8°F 33.8°F 100% 30.64 in 9.0 miles Calm Calm - 0.00 in   Overcast
5:35 AM 33.8°F 33.8°F 100% 30.64 in 8.0 miles Calm Calm - 0.00 in   Overcast
5:55 AM 33.8°F 33.8°F 100% 30.64 in 8.0 miles Calm Calm - 0.00 in   Overcast
6:15 AM 33.8°F 33.8°F 100% 30.65 in 8.0 miles Calm Calm - 0.00 in   Overcast
6:35 AM 33.8°F 33.8°F 100% 30.65 in 8.0 miles Calm Calm - 0.00 in   Overcast
6:55 AM 33.8°F 33.8°F 100% 30.66 in 8.0 miles Calm Calm - 0.00 in   Overcast
7:15 AM 33.8°F 33.8°F 100% 30.66 in 9.0 miles Calm Calm - 0.00 in   Overcast
7:35 AM 33.8°F 33.8°F 100% 30.67 in 10.0 miles Calm Calm - 0.00 in   Overcast
8:15 AM 33.8°F 33.8°F 100% 30.69 in 7.0 miles Calm Calm - 0.00 in   Overcast
8:35 AM 33.8°F 33.8°F 100% 30.70 in 8.0 miles Calm Calm - 0.00 in   Overcast
8:55 AM 33.8°F 33.8°F 100% 30.70 in 7.0 miles Calm Calm - 0.00 in   Overcast
9:15 AM 33.8°F 33.8°F 100% 30.71 in 7.0 miles Calm Calm - 0.00 in   Overcast
9:35 AM 35.6°F 33.8°F 93% 30.70 in 7.0 miles NE 4.6 mph - 0.00 in   Overcast
9:55 AM 35.6°F 33.8°F 93% 30.71 in 7.0 miles ENE 3.5 mph - 0.00 in   Overcast
10:15 AM 35.6°F 33.8°F 93% 30.71 in 7.0 miles NE 3.5 mph - 0.00 in   Overcast
10:35 AM 35.6°F 35.6°F 100% 30.72 in 7.0 miles NNE 4.6 mph - 0.00 in   Overcast
10:55 AM 37.4°F 35.6°F 93% 30.72 in 7.0 miles NE 3.5 mph - 0.00 in   Overcast
11:15 AM 37.4°F 35.6°F 93% 30.72 in 7.0 miles Calm Calm - 0.00 in   Overcast
11:35 AM 37.4°F 35.6°F 93% 30.72 in 8.0 miles ENE 3.5 mph - 0.00 in   Overcast
11:55 AM 37.4°F 35.6°F 93% 30.71 in 8.0 miles Calm Calm - 0.00 in   Overcast
12:15 PM 39.2°F 35.6°F 87% 30.71 in 9.0 miles Calm Calm - 0.00 in   Overcast
12:35 PM 39.2°F 35.6°F 87% 30.71 in 8.0 miles NNW 3.5 mph - 0.00 in   Mostly Cloudy
12:55 PM 39.2°F 35.6°F 87% 30.70 in 8.0 miles Calm Calm - 0.00 in   Mostly Cloudy
1:35 PM 41.0°F 33.8°F 76% 30.70 in 9.0 miles Calm Calm - 0.00 in   Overcast
1:55 PM 41.0°F 33.8°F 76% 30.70 in 9.0 miles NW 3.5 mph - 0.00 in   Mostly Cloudy
2:35 PM 42.8°F 35.6°F 76% 30.70 in 9.0 miles Calm Calm - 0.00 in   Scattered Clouds
2:55 PM 39.2°F 35.6°F 87% 30.71 in 8.0 miles Calm Calm - 0.00 in   Clear
3:15 PM 39.2°F 35.6°F 87% 30.71 in 7.0 miles NE 3.5 mph - 0.00 in   Clear
3:35 PM 39.2°F 35.6°F 87% 30.71 in 7.0 miles NE 4.6 mph - 0.00 in   Clear
3:55 PM 39.2°F 35.6°F 87% 30.70 in 8.0 miles NNE 4.6 mph - 0.00 in   Clear
4:35 PM 37.4°F 35.6°F 93% 30.71 in 7.0 miles NW 3.5 mph - 0.00 in   Clear
4:55 PM 33.8°F 33.8°F 100% 30.70 in 7.0 miles NW 3.5 mph - 0.00 in   Clear
5:15 PM 33.8°F 33.8°F 100% 30.70 in 8.0 miles NW 4.6 mph - 0.00 in   Clear
5:35 PM 32.0°F 32.0°F 100% 30.71 in 9.0 miles NW 3.5 mph - 0.00 in   Clear
5:55 PM 32.0°F 32.0°F 100% 30.70 in 8.0 miles WNW 3.5 mph - 0.00 in   Clear
6:15 PM 32.0°F 32.0°F 100% 30.70 in 8.0 miles Calm Calm - 0.00 in   Clear
6:35 PM 32.0°F 32.0°F 100% 30.70 in 8.0 miles Calm Calm - 0.00 in   Clear
6:55 PM 32.0°F 32.0°F 100% 30.70 in 7.0 miles Calm Calm - 0.00 in   Clear
7:15 PM 32.0°F 32.0°F 100% 30.70 in 7.0 miles NNW 3.5 mph - 0.00 in   Clear
7:35 PM 32.0°F 32.0°F 100% 30.70 in 7.0 miles NNE 3.5 mph - 0.00 in   Clear
7:55 PM 32.0°F 32.0°F 100% 30.71 in 9.0 miles NNE 4.6 mph - 0.00 in   Clear
8:15 PM 33.8°F 32.0°F 93% 30.71 in 10.0 miles NE 6.9 mph - 0.00 in   Clear
8:35 PM 33.8°F 32.0°F 93% 30.70 in 10.0 miles NE 6.9 mph - 0.00 in   Clear
8:55 PM 32.0°F 32.0°F 100% 30.70 in 10.0 miles NE 5.8 mph - 0.00 in   Clear
9:15 PM 32.0°F 32.0°F 100% 30.70 in 10.0 miles NE 3.5 mph - 0.00 in   Clear
9:35 PM 32.0°F 32.0°F 100% 30.70 in 10.0 miles Calm Calm - 0.00 in   Clear
10:15 PM 32.0°F 32.0°F 100% 30.70 in 10.0 miles NE 4.6 mph - 0.00 in   Clear
10:35 PM 32.0°F 32.0°F 100% 30.70 in 10.0 miles NE 3.5 mph - 0.00 in   Clear
10:55 PM 32.0°F 32.0°F 100% 30.70 in 10.0 miles NE 3.5 mph - 0.00 in   Clear
11:15 PM 32.0°F 32.0°F 100% 30.70 in 10.0 miles Calm Calm - 0.00 in   Clear
11:35 PM 32.0°F 32.0°F 100% 30.70 in 10.0 miles Calm Calm - 0.00 in   Clear
11:55 PM 32.0°F 32.0°F 100% 30.70 in 10.0 miles Calm Calm - 0.00 in   Clear
Moon Phase
Jan. 15 Jan. 18 Jan. 26 Feb. 03 Feb. 10
Sunrise:07:56 AM (PST) Moon Rise:09:39 AM (PST)
Sunset:04:42 PM (PST) Moon Set:10:06 PM (PST)

Copyright © 2014 The Weather Underground, Inc.